FW5469 Weather Reports


time (UTC)temp
C
wind
direction
speed
KPH
gust
KPH
rain 1hr
cm
rain 24hr
cm
rain mn
cm
humidity
%
barometer
mb
20260509044612 11 0 1.6 6.4 0.00 0.43 0.00 90 1007.7
20260509043057 11 0 0.0 3.2 0.00 0.43 0.00 90 1007.7
20260509041559 11 224 1.6 3.2 0.00 0.43 0.00 90 1007.8
20260509040056 11 226 0.0 3.2 0.00 0.43 0.00 90 1008.1
20260509034558 11 0 0.0 6.4 0.03 0.43 0.43 90 1008.4
20260509033056 11 226 3.2 11.3 0.03 0.43 0.43 89 1008.3
20260509031608 11 228 3.2 12.9 0.03 0.43 0.43 89 1008.5
20260509030104 11 167 4.8 12.9 0.03 0.43 0.43 89 1008.7
20260509024557 11 226 3.2 9.7 0.00 0.41 0.41 90 1008.7
20260509023106 10 243 3.2 6.4 0.00 0.41 0.41 90 1008.7
20260509021557 11 240 1.6 3.2 0.00 0.41 0.41 90 1008.7
20260509020058 11 0 1.6 9.7 0.00 0.41 0.41 90 1008.7
20260509014557 10 201 1.6 6.4 0.00 0.41 0.41 90 1008.7
20260509013057 10 227 0.0 9.7 0.03 0.41 0.41 90 1008.7
20260509011601 10 238 3.2 6.4 0.05 0.41 0.41 90 1008.5
20260509004608 10 260 1.6 6.4 0.10 0.41 0.41 90 1008.7
20260509003102 10 225 1.6 9.7 0.10 0.38 0.38 90 1008.5
20260509001557 10 238 3.2 12.9 0.13 0.36 0.36 91 1008.3
20260509000056 10 187 1.6 8.0 0.15 0.33 0.33 91 1008.7
20260508234558 10 243 0.0 3.2 0.15 0.30 0.30 91 1008.6
20260508233057 10 157 0.0 3.2 0.13 0.28 0.28 90 1008.7
20260508231600 10 219 0.0 3.2 0.13 0.23 0.23 90 1008.6
20260508230128 10 244 0.0 1.6 0.13 0.18 0.18 89 1008.6
20260508224604 11 0 0.0 0.0 0.15 0.15 0.15 89 1008.9
20260508223059 10 0 0.0 3.2 0.15 0.15 0.15 88 1008.6
20260508221557 11 0 0.0 1.6 0.10 0.10 0.10 88 1008.9
20260508220125 11 0 0.0 3.2 0.05 0.05 0.05 86 1009.0
20260508214601 11 0 0.0 8.0 0.00 0.00 0.00 83 1008.3
20260508213100 11 238 1.6 12.9 0.00 0.00 0.00 82 1008.5
20260508211554 12 226 1.6 6.4 0.00 0.00 0.00 81 1008.7
20260508210058 12 220 1.6 11.3 0.00 0.00 0.00 82 1008.7
20260508204605 12 170 3.2 11.3 0.00 0.00 0.00 80 1009.1
20260508203054 12 165 1.6 16.1 0.00 0.00 0.00 80 1009.2
20260508201557 13 193 1.6 17.7 0.00 0.00 0.00 75 1009.5
20260508194601 14 212 6.4 16.1 0.00 0.00 0.00 71 1009.5
20260508193107 15 314 3.2 11.3 0.00 0.00 0.00 70 1009.5
20260508191555 15 226 4.8 14.5 0.00 0.00 0.00 68 1009.5
20260508190109 15 229 3.2 16.1 0.00 0.00 0.00 67 1009.6
20260508184558 15 250 3.2 19.3 0.00 0.00 0.00 69 1009.7
20260508183059 15 230 4.8 17.7 0.00 0.00 0.00 68 1009.9
20260508181611 15 167 1.6 17.7 0.00 0.00 0.00 69 1009.9
20260508180108 15 285 3.2 17.7 0.00 0.00 0.00 71 1010.3
20260508174622 15 219 1.6 11.3 0.00 0.00 0.00 70 1010.4
20260508173100 14 285 3.2 11.3 0.00 0.00 0.00 68 1010.6
20260508171600 14 244 4.8 12.9 0.00 0.00 0.00 67 1010.6
20260508164557 15 252 3.2 11.3 0.00 0.00 0.00 66 1010.8
20260508163054 15 330 3.2 14.5 0.00 0.00 0.00 67 1010.8
20260508161556 15 232 1.6 20.9 0.00 0.00 0.00 68 1010.8
20260508160055 15 262 3.2 9.7 0.00 0.00 0.00 66 1011.0
20260508154556 14 236 1.6 9.7 0.00 0.00 0.00 68 1010.9
20260508153102 15 314 1.6 17.7 0.00 0.00 0.00 68 1010.8
20260508151555 13 302 3.2 12.9 0.00 0.00 0.00 68 1011.0
20260508150057 13 334 3.2 12.9 0.00 0.00 0.00 70 1011.1
20260508144600 13 0 1.6 12.9 0.00 0.00 0.00 69 1011.0
20260508143059 12 296 1.6 11.3 0.00 0.00 0.00 70 1011.0
20260508141600 12 326 0.0 4.8 0.00 0.00 0.00 70 1011.0
20260508140056 12 0 1.6 11.3 0.00 0.00 0.00 71 1011.2
20260508134618 11 240 4.8 12.9 0.00 0.00 0.00 71 1011.4
20260508133059 11 222 1.6 9.7 0.00 0.00 0.00 71 1011.3
20260508131555 10 0 0.0 3.2 0.00 0.00 0.00 76 1011.4
20260508130057 10 42 0.0 3.2 0.00 0.00 0.00 77 1011.4
20260508124557 10 0 1.6 4.8 0.00 0.00 0.00 78 1011.9
20260508123105 9 0 0.0 4.8 0.00 0.00 0.00 79 1011.5
20260508121558 9 0 1.6 6.4 0.00 0.00 0.00 78 1011.2
20260508120058 9 0 0.0 4.8 0.00 0.00 0.00 78 1011.1
20260508114555 9 168 0.0 1.6 0.00 0.00 0.00 79 1010.8
20260508113106 9 0 0.0 3.2 0.00 0.00 0.00 77 1010.8
20260508111556 9 270 3.2 8.0 0.00 0.00 0.00 76 1010.6
20260508110055 8 0 0.0 3.2 0.00 0.00 0.00 78 1010.7
20260508104601 8 231 1.6 6.4 0.00 0.00 0.00 77 1010.6
20260508103102 8 238 1.6 11.3 0.00 0.00 0.00 77 1010.7
20260508101601 8 212 3.2 8.0 0.00 0.00 0.00 78 1010.7
20260508100111 7 226 0.0 8.0 0.00 0.00 0.00 80 1010.5
20260508094615 7 221 0.0 3.2 0.00 0.00 0.00 80 1010.7
20260508093104 7 236 1.6 6.4 0.00 0.00 0.00 80 1010.6
20260508091606 7 245 1.6 6.4 0.00 0.00 0.00 80 1010.8
20260508090100 7 165 1.6 8.0 0.00 0.00 0.00 80 1010.9
20260508084602 7 178 0.0 3.2 0.00 0.00 0.00 80 1010.8
20260508083100 7 235 0.0 8.0 0.00 0.00 0.00 79 1010.9
20260508081619 7 238 1.6 6.4 0.00 0.00 0.00 79 1011.0
20260508080056 8 0 1.6 6.4 0.00 0.00 0.00 78 1011.0
20260508074555 8 0 1.6 8.0 0.00 0.00 0.00 77 1011.1
20260508073103 8 143 1.6 6.4 0.00 0.00 0.00 76 1011.1
20260508071559 8 227 1.6 4.8 0.00 0.00 0.00 74 1011.2
20260508070057 9 0 3.2 9.7 0.00 0.00 0.00 72 1011.2
20260508064602 9 244 1.6 9.7 0.00 0.00 0.00 70 1011.2
20260508063105 8 0 1.6 9.7 0.00 0.00 0.00 69 1011.1
20260508061604 8 158 1.6 8.0 0.00 0.00 0.00 69 1011.1
20260508054559 8 249 0.0 4.8 0.00 0.00 0.00 70 1011.3
20260508053103 8 233 1.6 6.4 0.00 0.00 0.00 69 1011.3
20260508051557 8 0 0.0 4.8 0.00 0.00 0.00 70 1011.6
20260508050106 8 0 0.0 3.2 0.00 0.00 0.00 70 1011.7